When you browse on this site, cookies collect data to enhance your experience and personalize the content and advertising you see.
Visit our Privacy Policy to learn more. By continuing to use the site, you agree to this use of cookies and data.
EN

Hourly Weather Harare

Today, 11 August, Tuesday

Time Temperature Precipitation Wind Pressure Humidity
00:00 +13°C° 0 mm 2 mps 639 mmHg 34%
01:00 +12°C° 0 mm 2 mps 639 mmHg 36%
02:00 +12°C° 0 mm 1 mps 639 mmHg 39%
03:00 +11°C° 0 mm 1 mps 639 mmHg 41%
04:00 +11°C° 0 mm 1 mps 639 mmHg 42%
05:00 +11°C° 0 mm 1 mps 638 mmHg 44%
06:00 +13°C° 0 mm 1 mps 640 mmHg 40%
07:00 +15°C° 0 mm 1 mps 641 mmHg 37%
08:00 +17°C° 0 mm 2 mps 642 mmHg 33%
09:00 +19°C° 0 mm 2 mps 642 mmHg 27%
10:00 +23°C° 0 mm 2 mps 643 mmHg 21%
11:00 +25°C° 0 mm 2 mps 643 mmHg 15%
12:00 +26°C° 0 mm 2 mps 643 mmHg 14%
13:00 +27°C° 0 mm 2 mps 643 mmHg 13%
14:00 +28°C° 0 mm 2 mps 642 mmHg 11%
15:00 +27°C° 0 mm 2 mps 642 mmHg 12%
16:00 +26°C° 0 mm 2 mps 641 mmHg 14%
17:00 +25°C° 0 mm 2 mps 641 mmHg 15%
18:00 +21°C° 0 mm 2 mps 640 mmHg 20%
19:00 +19°C° 0 mm 2 mps 640 mmHg 25%
20:00 +16°C° 0 mm 3 mps 639 mmHg 31%
21:00 +15°C° 0 mm 2 mps 640 mmHg 35%
22:00 +14°C° 0 mm 2 mps 640 mmHg 40%
23:00 +13°C° 0 mm 2 mps 640 mmHg 45%

Tomorrow, 12 August, Wednesday

Time Temperature Precipitation Wind Pressure Humidity
00:00 +12°C° 0 mm 2 mps 639 mmHg 51%
01:00 +11°C° 0 mm 1 mps 639 mmHg 57%
02:00 +10°C° 0 mm 1 mps 639 mmHg 63%
03:00 +10°C° 0 mm 1 mps 639 mmHg 66%
04:00 +10°C° 0 mm 1 mps 639 mmHg 70%
05:00 +10°C° 0 mm 1 mps 638 mmHg 73%
06:00 +12°C° 0 mm 1 mps 639 mmHg 64%
07:00 +14°C° 0 mm 1 mps 640 mmHg 55%
08:00 +15°C° 0 mm 0 mps 642 mmHg 46%
09:00 +20°C° 0 mm 1 mps 642 mmHg 36%
10:00 +23°C° 0 mm 1 mps 643 mmHg 26%
11:00 +26°C° 0 mm 2 mps 644 mmHg 15%
12:00 +27°C° 0 mm 2 mps 643 mmHg 14%
13:00 +28°C° 0 mm 2 mps 642 mmHg 13%
14:00 +29°C° 0 mm 2 mps 641 mmHg 11%
15:00 +28°C° 0 mm 2 mps 641 mmHg 11%
16:00 +27°C° 0 mm 2 mps 640 mmHg 12%
17:00 +27°C° 0 mm 2 mps 640 mmHg 12%
18:00 +24°C° 0 mm 2 mps 640 mmHg 14%
19:00 +20°C° 0 mm 2 mps 639 mmHg 17%
20:00 +17°C° 0 mm 2 mps 639 mmHg 19%
21:00 +16°C° 0 mm 2 mps 639 mmHg 25%
22:00 +15°C° 0 mm 2 mps 639 mmHg 31%
23:00 +14°C° 0 mm 2 mps 640 mmHg 37%

Day after tomorrow, 13 August, Thursday

Time Temperature Precipitation Wind Pressure Humidity
00:00 +14°C° 0 mm 2 mps 639 mmHg 41%
01:00 +13°C° 0 mm 2 mps 639 mmHg 45%
02:00 +13°C° 0 mm 1 mps 638 mmHg 49%
03:00 +12°C° 0 mm 1 mps 638 mmHg 52%
04:00 +11°C° 0 mm 1 mps 638 mmHg 54%
05:00 +11°C° 0 mm 1 mps 638 mmHg 57%
06:00 +12°C° 0 mm 0 mps 639 mmHg 50%
07:00 +15°C° 0 mm 0 mps 640 mmHg 43%
08:00 +17°C° 0 mm 0 mps 641 mmHg 37%
09:00 +21°C° 0 mm 1 mps 642 mmHg 28%
10:00 +24°C° 0 mm 2 mps 642 mmHg 18%
11:00 +27°C° 0 mm 4 mps 643 mmHg 9%
12:00 +28°C° 0 mm 4 mps 642 mmHg 8%
13:00 +28°C° 0 mm 4 mps 642 mmHg 7%
14:00 +29°C° 0 mm 5 mps 641 mmHg 6%
15:00 +28°C° 0 mm 4 mps 641 mmHg 7%
16:00 +27°C° 0 mm 4 mps 641 mmHg 8%
17:00 +26°C° 0 mm 4 mps 640 mmHg 10%
18:00 +23°C° 0 mm 4 mps 640 mmHg 12%
19:00 +20°C° 0 mm 3 mps 640 mmHg 15%
20:00 +18°C° 0 mm 3 mps 640 mmHg 18%
21:00 +17°C° 0 mm 3 mps 640 mmHg 20%
22:00 +16°C° 0 mm 3 mps 640 mmHg 22%
23:00 +15°C° 0 mm 2 mps 641 mmHg 24%

14 August, Friday

Time Temperature Precipitation Wind Pressure Humidity
00:00 +15°C° 0 mm 2 mps 640 mmHg 25%
01:00 +14°C° 0 mm 2 mps 640 mmHg 25%
02:00 +14°C° 0 mm 2 mps 639 mmHg 26%
03:00 +13°C° 0 mm 3 mps 639 mmHg 27%
04:00 +12°C° 0 mm 3 mps 639 mmHg 29%
05:00 +12°C° 0 mm 3 mps 639 mmHg 30%
06:00 +14°C° 0 mm 4 mps 640 mmHg 30%
07:00 +15°C° 0 mm 5 mps 641 mmHg 29%
08:00 +17°C° 0 mm 6 mps 642 mmHg 29%
09:00 +20°C° 0 mm 5 mps 642 mmHg 25%
10:00 +22°C° 0 mm 5 mps 643 mmHg 21%
11:00 +25°C° 0 mm 4 mps 643 mmHg 17%
12:00 +25°C° 0 mm 4 mps 643 mmHg 16%
13:00 +26°C° 0 mm 4 mps 642 mmHg 15%
14:00 +27°C° 0 mm 3 mps 641 mmHg 14%
15:00 +26°C° 0 mm 3 mps 641 mmHg 15%
16:00 +25°C° 0 mm 3 mps 641 mmHg 17%
17:00 +23°C° 0 mm 4 mps 640 mmHg 19%
18:00 +20°C° 0 mm 3 mps 640 mmHg 27%
19:00 +17°C° 0 mm 3 mps 639 mmHg 35%
20:00 +14°C° 0 mm 3 mps 639 mmHg 43%
21:00 +13°C° 0 mm 3 mps 639 mmHg 50%
22:00 +12°C° 0 mm 3 mps 639 mmHg 58%
23:00 +11°C° 0 mm 3 mps 638 mmHg 65%

15 August, Saturday

Time Temperature Precipitation Wind Pressure Humidity
00:00 +10°C° 0 mm 3 mps 638 mmHg 67%
01:00 +10°C° 0 mm 3 mps 637 mmHg 68%
02:00 +9°C° 0 mm 2 mps 637 mmHg 69%
03:00 +9°C° 0 mm 2 mps 637 mmHg 69%
04:00 +9°C° 0 mm 2 mps 637 mmHg 69%
05:00 +8°C° 0 mm 2 mps 636 mmHg 68%
06:00 +10°C° 0 mm 2 mps 637 mmHg 58%
07:00 +13°C° 0 mm 2 mps 638 mmHg 48%
08:00 +14°C° 0 mm 3 mps 639 mmHg 38%
09:00 +18°C° 0 mm 2 mps 639 mmHg 31%
10:00 +21°C° 0 mm 2 mps 640 mmHg 24%
11:00 +25°C° 0 mm 2 mps 641 mmHg 17%
12:00 +27°C° 0 mm 1 mps 640 mmHg 15%
13:00 +28°C° 0 mm 1 mps 640 mmHg 13%
14:00 +30°C° 0 mm 1 mps 639 mmHg 11%
15:00 +29°C° 0 mm 1 mps 639 mmHg 12%
16:00 +28°C° 0 mm 1 mps 638 mmHg 12%
17:00 +26°C° 0 mm 1 mps 638 mmHg 13%
18:00 +23°C° 0 mm 1 mps 637 mmHg 17%
19:00 +20°C° 0 mm 2 mps 637 mmHg 20%
20:00 +17°C° 0 mm 2 mps 637 mmHg 24%
21:00 +16°C° 0 mm 2 mps 636 mmHg 28%
22:00 +15°C° 0 mm 2 mps 636 mmHg 33%
23:00 +14°C° 0 mm 2 mps 636 mmHg 38%

16 August, Sunday

Time Temperature Precipitation Wind Pressure Humidity
00:00 +13°C° 0 mm 2 mps 636 mmHg 40%
01:00 +13°C° 0 mm 1 mps 636 mmHg 43%
02:00 +13°C° 0 mm 1 mps 635 mmHg 45%
03:00 +12°C° 0 mm 1 mps 635 mmHg 46%
04:00 +12°C° 0 mm 1 mps 636 mmHg 47%
05:00 +12°C° 0 mm 1 mps 636 mmHg 48%
06:00 +15°C° 0 mm 1 mps 637 mmHg 42%
07:00 +18°C° 0 mm 1 mps 638 mmHg 35%
08:00 +21°C° 0 mm 1 mps 639 mmHg 29%
09:00 +24°C° 0 mm 1 mps 640 mmHg 24%
10:00 +27°C° 0 mm 1 mps 641 mmHg 18%
11:00 +31°C° 0 mm 1 mps 641 mmHg 13%
12:00 +31°C° 0 mm 1 mps 641 mmHg 11%
13:00 +32°C° 0 mm 1 mps 640 mmHg 10%
14:00 +33°C° 0 mm 1 mps 640 mmHg 9%
15:00 +32°C° 0 mm 1 mps 639 mmHg 10%
16:00 +30°C° 0 mm 1 mps 639 mmHg 10%
17:00 +29°C° 0 mm 1 mps 638 mmHg 11%
18:00 +26°C° 0 mm 1 mps 638 mmHg 13%
19:00 +23°C° 0 mm 1 mps 638 mmHg 15%
20:00 +21°C° 0 mm 1 mps 637 mmHg 18%
21:00 +20°C° 0 mm 1 mps 637 mmHg 20%
22:00 +19°C° 0 mm 1 mps 637 mmHg 22%
23:00 +17°C° 0 mm 2 mps 637 mmHg 24%
Show more